Year,Month,Day,Hour,Minute,Value (Times are PST for temperature in C)
2014,08,24,00,00,18.70
2014,08,24,00,01,18.80
2014,08,24,00,02,18.80
2014,08,24,00,03,18.80
2014,08,24,00,04,18.80
2014,08,24,00,05,18.90
2014,08,24,00,06,18.90
2014,08,24,00,07,18.90
2014,08,24,00,08,18.90
2014,08,24,00,09,18.90
2014,08,24,00,10,18.80
2014,08,24,00,11,18.80
2014,08,24,00,12,18.70
2014,08,24,00,13,18.70
2014,08,24,00,14,18.70
2014,08,24,00,15,18.70
2014,08,24,00,16,18.70
2014,08,24,00,17,18.60
2014,08,24,00,18,18.60
2014,08,24,00,19,18.60
2014,08,24,00,20,18.60
2014,08,24,00,21,18.50
2014,08,24,00,22,18.50
2014,08,24,00,23,18.50
2014,08,24,00,24,18.40
2014,08,24,00,25,18.40
2014,08,24,00,26,18.40
2014,08,24,00,27,18.40
2014,08,24,00,28,18.40
2014,08,24,00,29,18.30
2014,08,24,00,30,18.30
2014,08,24,00,31,18.30
2014,08,24,00,32,18.30
2014,08,24,00,33,18.20
2014,08,24,00,34,18.20
2014,08,24,00,35,18.20
2014,08,24,00,36,18.20
2014,08,24,00,37,18.20
2014,08,24,00,38,18.20
2014,08,24,00,39,18.20
2014,08,24,00,40,18.10
2014,08,24,00,41,18.10
2014,08,24,00,42,18.10
2014,08,24,00,43,18.10
2014,08,24,00,44,18.10
2014,08,24,00,45,18.10
2014,08,24,00,46,18.00
2014,08,24,00,47,18.00
2014,08,24,00,48,18.00
2014,08,24,00,49,17.90
2014,08,24,00,50,17.90
2014,08,24,00,51,17.90
2014,08,24,00,52,17.90
2014,08,24,00,53,17.90
2014,08,24,00,54,17.90
2014,08,24,00,55,17.90
2014,08,24,00,56,17.90
2014,08,24,00,57,17.80
2014,08,24,00,58,17.80
2014,08,24,00,59,17.80
2014,08,24,01,00,17.70
2014,08,24,01,01,17.70
2014,08,24,01,02,17.70
2014,08,24,01,03,17.60
2014,08,24,01,04,17.60
2014,08,24,01,05,17.60
2014,08,24,01,06,17.50
2014,08,24,01,07,17.40
2014,08,24,01,08,17.40
2014,08,24,01,09,17.30
2014,08,24,01,10,17.30
2014,08,24,01,11,17.30
2014,08,24,01,12,17.20
2014,08,24,01,13,17.20
2014,08,24,01,14,17.10
2014,08,24,01,15,17.10
2014,08,24,01,16,17.10
2014,08,24,01,17,17.10
2014,08,24,01,18,17.00
2014,08,24,01,19,17.00
2014,08,24,01,20,17.00
2014,08,24,01,21,17.00
2014,08,24,01,22,17.00
2014,08,24,01,23,17.00
2014,08,24,01,24,17.10
2014,08,24,01,25,17.10
2014,08,24,01,26,17.10
2014,08,24,01,27,17.20
2014,08,24,01,28,17.20
2014,08,24,01,29,17.20
2014,08,24,01,30,17.30
2014,08,24,01,31,17.30
2014,08,24,01,32,17.30
2014,08,24,01,33,17.30
2014,08,24,01,34,17.30
2014,08,24,01,35,17.40
2014,08,24,01,36,17.40
2014,08,24,01,37,17.40
2014,08,24,01,38,17.40
2014,08,24,01,39,17.40
2014,08,24,01,40,17.40
2014,08,24,01,41,17.40
2014,08,24,01,42,17.40
2014,08,24,01,43,17.40
2014,08,24,01,44,17.40
2014,08,24,01,45,17.40
2014,08,24,01,46,17.40
2014,08,24,01,47,17.30
2014,08,24,01,48,17.30
2014,08,24,01,49,17.30
2014,08,24,01,50,17.30
2014,08,24,01,51,17.30
2014,08,24,01,52,17.40
2014,08,24,01,53,17.40
2014,08,24,01,54,17.40
2014,08,24,01,55,17.40
2014,08,24,01,56,17.40
2014,08,24,01,57,17.40
2014,08,24,01,58,17.40
2014,08,24,01,59,17.40
2014,08,24,02,00,17.30
2014,08,24,02,01,17.30
2014,08,24,02,02,17.30
2014,08,24,02,03,17.30
2014,08,24,02,04,17.30
2014,08,24,02,05,17.30
2014,08,24,02,06,17.30
2014,08,24,02,07,17.20
2014,08,24,02,08,17.20
2014,08,24,02,09,17.20
2014,08,24,02,10,17.20
2014,08,24,02,11,17.20
2014,08,24,02,12,17.10
2014,08,24,02,13,17.10
2014,08,24,02,14,17.10
2014,08,24,02,15,17.10
2014,08,24,02,16,17.10
2014,08,24,02,17,17.00
2014,08,24,02,18,17.00
2014,08,24,02,19,17.00
2014,08,24,02,20,17.00
2014,08,24,02,21,16.90
2014,08,24,02,22,16.90
2014,08,24,02,23,16.90
2014,08,24,02,24,16.90
2014,08,24,02,25,16.90
2014,08,24,02,26,16.90
2014,08,24,02,27,16.90
2014,08,24,02,28,16.90
2014,08,24,02,29,16.90
2014,08,24,02,30,16.90
2014,08,24,02,31,16.90
2014,08,24,02,32,16.90
2014,08,24,02,33,16.90
2014,08,24,02,34,16.90
2014,08,24,02,35,16.90
2014,08,24,02,36,16.90
2014,08,24,02,37,16.90
2014,08,24,02,38,16.90
2014,08,24,02,39,16.80
2014,08,24,02,40,16.80
2014,08,24,02,41,16.80
2014,08,24,02,42,16.80
2014,08,24,02,43,16.80
2014,08,24,02,44,16.80
2014,08,24,02,45,16.70
2014,08,24,02,46,16.70
2014,08,24,02,47,16.70
2014,08,24,02,48,16.70
2014,08,24,02,49,16.70
2014,08,24,02,50,16.70
2014,08,24,02,51,16.70
2014,08,24,02,52,16.70
2014,08,24,02,53,16.70
2014,08,24,02,54,16.70
2014,08,24,02,55,16.70
2014,08,24,02,56,16.70
2014,08,24,02,57,16.70
2014,08,24,02,58,16.60
2014,08,24,02,59,16.60
2014,08,24,03,00,16.60
2014,08,24,03,01,16.60
2014,08,24,03,02,16.60
2014,08,24,03,03,16.50
2014,08,24,03,04,16.50
2014,08,24,03,05,16.50
2014,08,24,03,06,16.40
2014,08,24,03,07,16.40
2014,08,24,03,08,16.30
2014,08,24,03,09,16.30
2014,08,24,03,10,16.30
2014,08,24,03,11,16.20
2014,08,24,03,12,16.20
2014,08,24,03,13,16.10
2014,08,24,03,14,16.10
2014,08,24,03,15,16.00
2014,08,24,03,16,15.90
2014,08,24,03,17,15.90
2014,08,24,03,18,15.80
2014,08,24,03,19,15.80
2014,08,24,03,20,15.70
2014,08,24,03,21,15.60
2014,08,24,03,22,15.60
2014,08,24,03,23,15.50
2014,08,24,03,24,15.50
2014,08,24,03,25,15.40
2014,08,24,03,26,15.30
2014,08,24,03,27,15.30
2014,08,24,03,28,15.20
2014,08,24,03,29,15.20
2014,08,24,03,30,15.10
2014,08,24,03,31,15.10
2014,08,24,03,32,15.00
2014,08,24,03,33,15.00
2014,08,24,03,34,14.90
2014,08,24,03,35,14.90
2014,08,24,03,36,14.80
2014,08,24,03,37,14.80
2014,08,24,03,38,14.80
2014,08,24,03,39,14.80
2014,08,24,03,40,14.80
2014,08,24,03,41,14.70
2014,08,24,03,42,14.70
2014,08,24,03,43,14.70
2014,08,24,03,44,14.70
2014,08,24,03,45,14.60
2014,08,24,03,46,14.60
2014,08,24,03,47,14.60
2014,08,24,03,48,14.60
2014,08,24,03,49,14.60
2014,08,24,03,50,14.50
2014,08,24,03,51,14.60
2014,08,24,03,52,14.60
2014,08,24,03,53,14.60
2014,08,24,03,54,14.60
2014,08,24,03,55,14.60
2014,08,24,03,56,14.60
2014,08,24,03,57,14.60
2014,08,24,03,58,14.60
2014,08,24,03,59,14.60
2014,08,24,04,00,14.50
2014,08,24,04,01,14.50
2014,08,24,04,02,14.50
2014,08,24,04,03,14.40
2014,08,24,04,04,14.40
2014,08,24,04,05,14.40
2014,08,24,04,06,14.40
2014,08,24,04,07,14.40
2014,08,24,04,08,14.30
2014,08,24,04,09,14.30
2014,08,24,04,10,14.30
2014,08,24,04,11,14.30
2014,08,24,04,12,14.30
2014,08,24,04,13,14.30
2014,08,24,04,14,14.30
2014,08,24,04,15,14.30
2014,08,24,04,16,14.30
2014,08,24,04,17,14.30
2014,08,24,04,18,14.30
2014,08,24,04,19,14.30
2014,08,24,04,20,14.30
2014,08,24,04,21,14.30
2014,08,24,04,22,14.30
2014,08,24,04,23,14.30
2014,08,24,04,24,14.30
2014,08,24,04,25,14.30
2014,08,24,04,26,14.30
2014,08,24,04,27,14.30
2014,08,24,04,28,14.30
2014,08,24,04,29,14.30
2014,08,24,04,30,14.30
2014,08,24,04,31,14.30
2014,08,24,04,32,14.20
2014,08,24,04,33,14.20
2014,08,24,04,34,14.20
2014,08,24,04,35,14.20
2014,08,24,04,36,14.10
2014,08,24,04,37,14.10
2014,08,24,04,38,14.10
2014,08,24,04,39,14.10
2014,08,24,04,40,14.10
2014,08,24,04,41,14.00
2014,08,24,04,42,14.00
2014,08,24,04,43,13.90
2014,08,24,04,44,13.90
2014,08,24,04,45,13.90
2014,08,24,04,46,13.90
2014,08,24,04,47,13.80
2014,08,24,04,48,13.90
2014,08,24,04,49,13.90
2014,08,24,04,50,13.90
2014,08,24,04,51,13.90
2014,08,24,04,52,13.90
2014,08,24,04,53,13.90
2014,08,24,04,54,13.80
2014,08,24,04,55,13.80
2014,08,24,04,56,13.80
2014,08,24,04,57,13.80
2014,08,24,04,58,13.70
2014,08,24,04,59,13.70
2014,08,24,05,00,13.70
2014,08,24,05,01,13.70
2014,08,24,05,02,13.70
2014,08,24,05,03,13.70
2014,08,24,05,04,13.60
2014,08,24,05,05,13.60
2014,08,24,05,06,13.60
2014,08,24,05,07,13.60
2014,08,24,05,08,13.60
2014,08,24,05,09,13.60
2014,08,24,05,10,13.50
2014,08,24,05,11,13.50
2014,08,24,05,12,13.50
2014,08,24,05,13,13.50
2014,08,24,05,14,13.40
2014,08,24,05,15,13.40
2014,08,24,05,16,13.40
2014,08,24,05,17,13.40
2014,08,24,05,18,13.40
2014,08,24,05,19,13.40
2014,08,24,05,20,13.40
2014,08,24,05,21,13.40
2014,08,24,05,22,13.40
2014,08,24,05,23,13.40
2014,08,24,05,24,13.40
2014,08,24,05,25,13.40
2014,08,24,05,26,13.40
2014,08,24,05,27,13.30
2014,08,24,05,28,13.30
2014,08,24,05,29,13.30
2014,08,24,05,30,13.30
2014,08,24,05,31,13.30
2014,08,24,05,32,13.30
2014,08,24,05,33,13.30
2014,08,24,05,34,13.30
2014,08,24,05,35,13.20
2014,08,24,05,36,13.20
2014,08,24,05,37,13.20
2014,08,24,05,38,13.20
2014,08,24,05,39,13.20
2014,08,24,05,40,13.20
2014,08,24,05,41,13.20
2014,08,24,05,42,13.20
2014,08,24,05,43,13.20
2014,08,24,05,44,13.20
2014,08,24,05,45,13.30
2014,08,24,05,46,13.30
2014,08,24,05,47,13.30
2014,08,24,05,48,13.30
2014,08,24,05,49,13.30
2014,08,24,05,50,13.30
2014,08,24,05,51,13.30
2014,08,24,05,52,13.30
2014,08,24,05,53,13.30
2014,08,24,05,54,13.30
2014,08,24,05,55,13.30
2014,08,24,05,56,13.40
2014,08,24,05,57,13.40
2014,08,24,05,58,13.40
2014,08,24,05,59,13.40
2014,08,24,06,00,13.40
2014,08,24,06,01,13.40
2014,08,24,06,02,13.40
2014,08,24,06,03,13.40
2014,08,24,06,04,13.40
2014,08,24,06,05,13.40
2014,08,24,06,06,13.40
2014,08,24,06,07,13.40
2014,08,24,06,08,13.50
2014,08,24,06,09,13.50
2014,08,24,06,10,13.60
2014,08,24,06,11,13.60
2014,08,24,06,12,13.60
2014,08,24,06,13,13.60
2014,08,24,06,14,13.60
2014,08,24,06,15,13.70
2014,08,24,06,16,13.70
2014,08,24,06,17,13.70
2014,08,24,06,18,13.70
2014,08,24,06,19,13.70
2014,08,24,06,20,13.70
2014,08,24,06,21,13.70
2014,08,24,06,22,13.70
2014,08,24,06,23,13.70
2014,08,24,06,24,13.70
2014,08,24,06,25,13.70
2014,08,24,06,26,13.70
2014,08,24,06,27,13.70
2014,08,24,06,28,13.70
2014,08,24,06,29,13.70
2014,08,24,06,30,13.70
2014,08,24,06,31,13.70
2014,08,24,06,32,13.60
2014,08,24,06,33,13.60
2014,08,24,06,34,13.60
2014,08,24,06,35,13.60
2014,08,24,06,36,13.50
2014,08,24,06,37,13.50
2014,08,24,06,38,13.50
2014,08,24,06,39,13.40
2014,08,24,06,40,13.40
2014,08,24,06,41,13.40
2014,08,24,06,42,13.40
2014,08,24,06,43,13.40
2014,08,24,06,44,13.40
2014,08,24,06,45,13.40
2014,08,24,06,46,13.30
2014,08,24,06,47,13.30
2014,08,24,06,48,13.30
2014,08,24,06,49,13.30
2014,08,24,06,50,13.30
2014,08,24,06,51,13.30
2014,08,24,06,52,13.30
2014,08,24,06,53,13.30
2014,08,24,06,54,13.30
2014,08,24,06,55,13.30
2014,08,24,06,56,13.20
2014,08,24,06,57,13.20
2014,08,24,06,58,13.20
2014,08,24,06,59,13.20
2014,08,24,07,00,13.20
2014,08,24,07,01,13.20
2014,08,24,07,02,13.20
2014,08,24,07,03,13.20
2014,08,24,07,04,13.20
2014,08,24,07,05,13.20
2014,08,24,07,06,13.20
2014,08,24,07,07,13.20
2014,08,24,07,08,13.30
2014,08,24,07,09,13.30
2014,08,24,07,10,13.30
2014,08,24,07,11,13.30
2014,08,24,07,12,13.30
2014,08,24,07,13,13.30
2014,08,24,07,14,13.30
2014,08,24,07,15,13.40
2014,08,24,07,16,13.40
2014,08,24,07,17,13.40
2014,08,24,07,18,13.40
2014,08,24,07,19,13.50
2014,08,24,07,20,13.50
2014,08,24,07,21,13.60
2014,08,24,07,22,13.60
2014,08,24,07,23,13.70
2014,08,24,07,24,13.80
2014,08,24,07,25,13.90
2014,08,24,07,26,14.10
2014,08,24,07,27,14.20
2014,08,24,07,28,14.30
2014,08,24,07,29,14.40
2014,08,24,07,30,14.50
2014,08,24,07,31,14.60
2014,08,24,07,32,14.70
2014,08,24,07,33,14.80
2014,08,24,07,34,14.90
2014,08,24,07,35,15.00
2014,08,24,07,36,15.10
2014,08,24,07,37,15.20
2014,08,24,07,38,15.30
2014,08,24,07,39,15.40
2014,08,24,07,40,15.40
2014,08,24,07,41,15.50
2014,08,24,07,42,15.60
2014,08,24,07,43,15.60
2014,08,24,07,44,15.60
2014,08,24,07,45,15.70
2014,08,24,07,46,15.70
2014,08,24,07,47,15.80
2014,08,24,07,48,15.80
2014,08,24,07,49,15.90
2014,08,24,07,50,15.90
2014,08,24,07,51,16.00
2014,08,24,07,52,16.00
2014,08,24,07,53,16.10
2014,08,24,07,54,16.10
2014,08,24,07,55,16.20
2014,08,24,07,56,16.20
2014,08,24,07,57,16.20
2014,08,24,07,58,16.30
2014,08,24,07,59,16.30
2014,08,24,08,00,16.30
2014,08,24,08,01,16.30
2014,08,24,08,02,16.30
2014,08,24,08,03,16.30
2014,08,24,08,04,16.30
2014,08,24,08,05,16.30
2014,08,24,08,06,16.30
2014,08,24,08,07,16.30
2014,08,24,08,08,16.30
2014,08,24,08,09,16.30
2014,08,24,08,10,16.30
2014,08,24,08,11,16.30
2014,08,24,08,12,16.30
2014,08,24,08,13,16.30
2014,08,24,08,14,16.20
2014,08,24,08,15,16.20
2014,08,24,08,16,16.20
2014,08,24,08,17,16.20
2014,08,24,08,18,16.20
2014,08,24,08,19,16.20
2014,08,24,08,20,16.20
2014,08,24,08,21,16.20
2014,08,24,08,22,16.20
2014,08,24,08,23,16.20
2014,08,24,08,24,16.20
2014,08,24,08,25,16.20
2014,08,24,08,26,16.10
2014,08,24,08,27,16.10
2014,08,24,08,28,16.10
2014,08,24,08,29,16.10
2014,08,24,08,30,16.10
2014,08,24,08,31,16.10
2014,08,24,08,32,16.10
2014,08,24,08,33,16.10
2014,08,24,08,34,16.10
2014,08,24,08,35,16.10
2014,08,24,08,36,16.10
2014,08,24,08,37,16.10
2014,08,24,08,38,16.10
2014,08,24,08,39,16.00
2014,08,24,08,40,16.00
2014,08,24,08,41,16.00
2014,08,24,08,42,16.00
2014,08,24,08,43,16.00
2014,08,24,08,44,16.00
2014,08,24,08,45,16.10
2014,08,24,08,46,16.10
2014,08,24,08,47,16.10
2014,08,24,08,48,16.10
2014,08,24,08,49,16.10
2014,08,24,08,50,16.10
2014,08,24,08,51,16.10
2014,08,24,08,52,16.10
2014,08,24,08,53,16.10
2014,08,24,08,54,16.10
2014,08,24,08,55,16.20
2014,08,24,08,56,16.20
2014,08,24,08,57,16.20
2014,08,24,08,58,16.20
2014,08,24,08,59,16.30
2014,08,24,09,00,16.30
2014,08,24,09,01,16.30
2014,08,24,09,02,16.40
2014,08,24,09,03,16.50
2014,08,24,09,04,16.60
2014,08,24,09,05,16.70
2014,08,24,09,06,16.80
2014,08,24,09,07,16.90
2014,08,24,09,08,17.00
2014,08,24,09,09,17.10
2014,08,24,09,10,17.20
2014,08,24,09,11,17.30
2014,08,24,09,12,17.40
2014,08,24,09,13,17.50
2014,08,24,09,14,17.60
2014,08,24,09,15,17.70
2014,08,24,09,16,17.70
2014,08,24,09,17,17.80
2014,08,24,09,18,17.90
2014,08,24,09,19,17.90
2014,08,24,09,20,17.90
2014,08,24,09,21,18.00
2014,08,24,09,22,18.00
2014,08,24,09,23,18.00
2014,08,24,09,24,18.00
2014,08,24,09,25,18.00
2014,08,24,09,26,18.00
2014,08,24,09,27,18.00
2014,08,24,09,28,17.90
2014,08,24,09,29,17.90
2014,08,24,09,30,17.90
2014,08,24,09,31,17.80
2014,08,24,09,32,17.80
2014,08,24,09,33,17.80
2014,08,24,09,34,17.90
2014,08,24,09,35,17.90
2014,08,24,09,36,17.90
2014,08,24,09,37,17.90
2014,08,24,09,38,17.90
2014,08,24,09,39,18.00
2014,08,24,09,40,18.00
2014,08,24,09,41,18.10
2014,08,24,09,42,18.10
2014,08,24,09,43,18.10
2014,08,24,09,44,18.20
2014,08,24,09,45,18.20
2014,08,24,09,46,18.20
2014,08,24,09,47,18.20
2014,08,24,09,48,18.30
2014,08,24,09,49,18.30
2014,08,24,09,50,18.30
2014,08,24,09,51,18.40
2014,08,24,09,52,18.40
2014,08,24,09,53,18.40
2014,08,24,09,54,18.40
2014,08,24,09,55,18.30
2014,08,24,09,56,18.30
2014,08,24,09,57,18.30
2014,08,24,09,58,18.30
2014,08,24,09,59,18.30
2014,08,24,10,00,18.30
2014,08,24,10,01,18.30
2014,08,24,10,02,18.40
2014,08,24,10,03,18.50
2014,08,24,10,04,18.60
2014,08,24,10,05,18.70
2014,08,24,10,06,18.70
2014,08,24,10,07,18.70
2014,08,24,10,08,18.70
2014,08,24,10,09,18.70
2014,08,24,10,10,18.80
2014,08,24,10,11,18.70
2014,08,24,10,12,18.70
2014,08,24,10,13,18.70
2014,08,24,10,14,18.70
2014,08,24,10,15,18.70
2014,08,24,10,16,18.70
2014,08,24,10,17,18.80
2014,08,24,10,18,18.80
2014,08,24,10,19,18.80
2014,08,24,10,20,18.80
2014,08,24,10,21,18.80
2014,08,24,10,22,18.80
2014,08,24,10,23,18.90
2014,08,24,10,24,18.90
2014,08,24,10,25,19.00
2014,08,24,10,26,19.00
2014,08,24,10,27,19.00
2014,08,24,10,28,19.00
2014,08,24,10,29,19.00
2014,08,24,10,30,19.00
2014,08,24,10,31,19.10
2014,08,24,10,32,19.10
2014,08,24,10,33,19.10
2014,08,24,10,34,19.00
2014,08,24,10,35,19.00
2014,08,24,10,36,18.90
2014,08,24,10,37,19.00
2014,08,24,10,38,19.00
2014,08,24,10,39,19.00
2014,08,24,10,40,19.00
2014,08,24,10,41,19.10
2014,08,24,10,42,19.20
2014,08,24,10,43,19.20
2014,08,24,10,44,19.20
2014,08,24,10,45,19.20
2014,08,24,10,46,19.30
2014,08,24,10,47,19.30
2014,08,24,10,48,19.40
2014,08,24,10,49,19.40
2014,08,24,10,50,19.50
2014,08,24,10,51,19.50
2014,08,24,10,52,19.60
2014,08,24,10,53,19.60
2014,08,24,10,54,19.70
2014,08,24,10,55,19.70
2014,08,24,10,56,19.80
2014,08,24,10,57,19.80
2014,08,24,10,58,19.80
2014,08,24,10,59,19.80
2014,08,24,11,00,19.80
2014,08,24,11,01,19.90
2014,08,24,11,02,20.00
2014,08,24,11,03,20.00
2014,08,24,11,04,20.10
2014,08,24,11,05,20.00
2014,08,24,11,06,20.00
2014,08,24,11,07,19.90
2014,08,24,11,08,19.80
2014,08,24,11,09,19.70
2014,08,24,11,10,19.70
2014,08,24,11,11,19.70
2014,08,24,11,12,19.70
2014,08,24,11,13,19.70
2014,08,24,11,14,19.70
2014,08,24,11,15,19.60
2014,08,24,11,16,19.60
2014,08,24,11,17,19.50
2014,08,24,11,18,19.50
2014,08,24,11,19,19.50
2014,08,24,11,20,19.50
2014,08,24,11,21,19.50
2014,08,24,11,22,19.40
2014,08,24,11,23,19.40
2014,08,24,11,24,19.40
2014,08,24,11,25,19.40
2014,08,24,11,26,19.40
2014,08,24,11,27,19.40
2014,08,24,11,28,19.50
2014,08,24,11,29,19.50
2014,08,24,11,30,19.60
2014,08,24,11,31,19.70
2014,08,24,11,32,19.70
2014,08,24,11,33,19.80
2014,08,24,11,34,19.80
2014,08,24,11,35,19.90
2014,08,24,11,36,19.90
2014,08,24,11,37,19.90
2014,08,24,11,38,19.90
2014,08,24,11,39,19.90
2014,08,24,11,40,19.90
2014,08,24,11,41,19.90
2014,08,24,11,42,20.00
2014,08,24,11,43,20.00
2014,08,24,11,44,20.00
2014,08,24,11,45,20.00
2014,08,24,11,46,20.10
2014,08,24,11,47,20.10
2014,08,24,11,48,20.20
2014,08,24,11,49,20.20
2014,08,24,11,50,20.20
2014,08,24,11,51,20.20
2014,08,24,11,52,20.20
2014,08,24,11,53,20.20
2014,08,24,11,54,20.30
2014,08,24,11,55,20.30
2014,08,24,11,56,20.30
2014,08,24,11,57,20.30
2014,08,24,11,58,20.40
2014,08,24,11,59,20.40
2014,08,24,12,00,20.50
2014,08,24,12,01,20.50
2014,08,24,12,02,20.50
2014,08,24,12,03,20.60
2014,08,24,12,04,20.60
2014,08,24,12,05,20.60
2014,08,24,12,06,20.60
2014,08,24,12,07,20.60
2014,08,24,12,08,20.60
2014,08,24,12,09,20.60
2014,08,24,12,10,20.60
2014,08,24,12,11,20.70
2014,08,24,12,12,20.70
2014,08,24,12,13,20.70
2014,08,24,12,14,20.70
2014,08,24,12,15,20.70
2014,08,24,12,16,20.70
2014,08,24,12,17,20.70
2014,08,24,12,18,20.70
2014,08,24,12,19,20.60
2014,08,24,12,20,20.60
2014,08,24,12,21,20.60
2014,08,24,12,22,20.60
2014,08,24,12,23,20.50
2014,08,24,12,24,20.50
2014,08,24,12,25,20.60
2014,08,24,12,26,20.60
2014,08,24,12,27,20.60
2014,08,24,12,28,20.60
2014,08,24,12,29,20.60
2014,08,24,12,30,20.70
2014,08,24,12,31,20.80
2014,08,24,12,32,20.80
2014,08,24,12,33,20.80
2014,08,24,12,34,20.80
2014,08,24,12,35,20.90
2014,08,24,12,36,20.90
2014,08,24,12,37,21.00
2014,08,24,12,38,21.10
2014,08,24,12,39,21.20
2014,08,24,12,40,21.20
2014,08,24,12,41,21.30
2014,08,24,12,42,21.30
2014,08,24,12,43,21.30
2014,08,24,12,44,21.40
2014,08,24,12,45,21.40
2014,08,24,12,46,21.40
2014,08,24,12,47,21.50
2014,08,24,12,48,21.60
2014,08,24,12,49,21.60
2014,08,24,12,50,21.70
2014,08,24,12,51,21.70
2014,08,24,12,52,21.70
2014,08,24,12,53,21.80
2014,08,24,12,54,21.80
2014,08,24,12,55,21.80
2014,08,24,12,56,21.70
2014,08,24,12,57,21.60
2014,08,24,12,58,21.60
2014,08,24,12,59,21.50
2014,08,24,13,00,21.50
2014,08,24,13,01,21.50
2014,08,24,13,02,21.60
2014,08,24,13,03,21.60
2014,08,24,13,04,21.60
2014,08,24,13,05,21.70
2014,08,24,13,06,21.70
2014,08,24,13,07,21.70
2014,08,24,13,08,21.70
2014,08,24,13,09,21.70
2014,08,24,13,10,21.70
2014,08,24,13,11,21.80
2014,08,24,13,12,21.90
2014,08,24,13,13,22.00
2014,08,24,13,14,22.00
2014,08,24,13,15,22.10
2014,08,24,13,16,22.20
2014,08,24,13,17,22.30
2014,08,24,13,18,22.30
2014,08,24,13,19,22.30
2014,08,24,13,20,22.40
2014,08,24,13,21,22.50
2014,08,24,13,22,22.50
2014,08,24,13,23,22.50
2014,08,24,13,24,22.60
2014,08,24,13,25,22.60
2014,08,24,13,26,22.70
2014,08,24,13,27,22.70
2014,08,24,13,28,22.70
2014,08,24,13,29,22.80
2014,08,24,13,30,22.70
2014,08,24,13,31,22.70
2014,08,24,13,32,22.80
2014,08,24,13,33,22.80
2014,08,24,13,34,22.80
2014,08,24,13,35,22.90
2014,08,24,13,36,22.90
2014,08,24,13,37,22.90
2014,08,24,13,38,22.90
2014,08,24,13,39,22.90
2014,08,24,13,40,22.90
2014,08,24,13,41,22.90
2014,08,24,13,42,22.90
2014,08,24,13,43,23.00
2014,08,24,13,44,23.10
2014,08,24,13,45,23.20
2014,08,24,13,46,23.30
2014,08,24,13,47,23.30
2014,08,24,13,48,23.30
2014,08,24,13,49,23.30
2014,08,24,13,50,23.30
2014,08,24,13,51,23.20
2014,08,24,13,52,23.20
2014,08,24,13,53,23.20
2014,08,24,13,54,23.20
2014,08,24,13,55,23.30
2014,08,24,13,56,23.30
2014,08,24,13,57,23.40
2014,08,24,13,58,23.50
2014,08,24,13,59,23.50
2014,08,24,14,00,23.60
2014,08,24,14,01,23.60
2014,08,24,14,02,23.60
2014,08,24,14,03,23.60
2014,08,24,14,04,23.60
2014,08,24,14,05,23.60
2014,08,24,14,06,23.60
2014,08,24,14,07,23.50
2014,08,24,14,08,23.50
2014,08,24,14,09,23.50
2014,08,24,14,10,23.50
2014,08,24,14,11,23.50
2014,08,24,14,12,23.50
2014,08,24,14,13,23.40
2014,08,24,14,14,23.40
2014,08,24,14,15,23.50
2014,08,24,14,16,23.50
2014,08,24,14,17,23.50
2014,08,24,14,18,23.50
2014,08,24,14,19,23.50
2014,08,24,14,20,23.60
2014,08,24,14,21,23.70
2014,08,24,14,22,23.70
2014,08,24,14,23,23.80
2014,08,24,14,24,23.90
2014,08,24,14,25,24.00
2014,08,24,14,26,24.10
2014,08,24,14,27,24.10
2014,08,24,14,28,24.10
2014,08,24,14,29,24.20
2014,08,24,14,30,24.30
2014,08,24,14,31,24.30
2014,08,24,14,32,24.30
2014,08,24,14,33,24.30
2014,08,24,14,34,24.30
2014,08,24,14,35,24.30
2014,08,24,14,36,24.40
2014,08,24,14,37,24.40
2014,08,24,14,38,24.50
2014,08,24,14,39,24.50
2014,08,24,14,40,24.50
2014,08,24,14,41,24.40
2014,08,24,14,42,24.40
2014,08,24,14,43,24.40
2014,08,24,14,44,24.50
2014,08,24,14,45,24.50
2014,08,24,14,46,24.60
2014,08,24,14,47,24.60
2014,08,24,14,48,24.70
2014,08,24,14,49,24.70
2014,08,24,14,50,24.70
2014,08,24,14,51,24.70
2014,08,24,14,52,24.80
2014,08,24,14,53,24.80
2014,08,24,14,54,24.80
2014,08,24,14,55,24.80
2014,08,24,14,56,24.80
2014,08,24,14,57,24.70
2014,08,24,14,58,24.70
2014,08,24,14,59,24.70
2014,08,24,15,00,24.60
2014,08,24,15,01,24.60
2014,08,24,15,02,24.60
2014,08,24,15,03,24.60
2014,08,24,15,04,24.60
2014,08,24,15,05,24.60
2014,08,24,15,06,24.70
2014,08,24,15,07,24.70
2014,08,24,15,08,24.70
2014,08,24,15,09,24.80
2014,08,24,15,10,24.80
2014,08,24,15,11,24.90
2014,08,24,15,12,24.90
2014,08,24,15,13,24.90
2014,08,24,15,14,24.90
2014,08,24,15,15,24.90
2014,08,24,15,16,25.00
2014,08,24,15,17,25.00
2014,08,24,15,18,24.90
2014,08,24,15,19,24.90
2014,08,24,15,20,24.90
2014,08,24,15,21,24.80
2014,08,24,15,22,24.90
2014,08,24,15,23,24.90
2014,08,24,15,24,24.90
2014,08,24,15,25,24.90
2014,08,24,15,26,24.90
2014,08,24,15,27,24.90
2014,08,24,15,28,24.90
2014,08,24,15,29,25.00
2014,08,24,15,30,25.10
2014,08,24,15,31,25.20
2014,08,24,15,32,25.20
2014,08,24,15,33,25.20
2014,08,24,15,34,25.10
2014,08,24,15,35,25.10
2014,08,24,15,36,25.00
2014,08,24,15,37,25.00
2014,08,24,15,38,25.00
2014,08,24,15,39,24.90
2014,08,24,15,40,24.90
2014,08,24,15,41,25.00
2014,08,24,15,42,25.00
2014,08,24,15,43,25.00
2014,08,24,15,44,25.10
2014,08,24,15,45,25.10
2014,08,24,15,46,25.10
2014,08,24,15,47,25.20
2014,08,24,15,48,25.20
2014,08,24,15,49,25.20
2014,08,24,15,50,25.30
2014,08,24,15,51,25.40
2014,08,24,15,52,25.40
2014,08,24,15,53,25.30
2014,08,24,15,54,25.20
2014,08,24,15,55,25.20
2014,08,24,15,56,25.20
2014,08,24,15,57,25.20
2014,08,24,15,58,25.10
2014,08,24,15,59,25.10
2014,08,24,16,00,25.10
2014,08,24,16,01,25.10
2014,08,24,16,02,25.10
2014,08,24,16,03,25.10
2014,08,24,16,04,25.10
2014,08,24,16,05,25.10
2014,08,24,16,06,25.10
2014,08,24,16,07,25.20
2014,08,24,16,08,25.30
2014,08,24,16,09,25.40
2014,08,24,16,10,25.50
2014,08,24,16,11,25.50
2014,08,24,16,12,25.60
2014,08,24,16,13,25.70
2014,08,24,16,14,25.70
2014,08,24,16,15,25.70
2014,08,24,16,16,25.70
2014,08,24,16,17,25.70
2014,08,24,16,18,25.70
2014,08,24,16,19,25.60
2014,08,24,16,20,25.60
2014,08,24,16,21,25.50
2014,08,24,16,22,25.50
2014,08,24,16,23,25.40
2014,08,24,16,24,25.40
2014,08,24,16,25,25.40
2014,08,24,16,26,25.40
2014,08,24,16,27,25.40
2014,08,24,16,28,25.40
2014,08,24,16,29,25.40
2014,08,24,16,30,25.40
2014,08,24,16,31,25.50
2014,08,24,16,32,25.50
2014,08,24,16,33,25.50
2014,08,24,16,34,25.60
2014,08,24,16,35,25.60
2014,08,24,16,36,25.60
2014,08,24,16,37,25.70
2014,08,24,16,38,25.70
2014,08,24,16,39,25.70
2014,08,24,16,40,25.70
2014,08,24,16,41,25.80
2014,08,24,16,42,25.80
2014,08,24,16,43,25.80
2014,08,24,16,44,25.90
2014,08,24,16,45,25.90
2014,08,24,16,46,25.90
2014,08,24,16,47,25.90
2014,08,24,16,48,25.90
2014,08,24,16,49,25.90
2014,08,24,16,50,25.90
2014,08,24,16,51,25.90
2014,08,24,16,52,25.90
2014,08,24,16,53,25.90
2014,08,24,16,54,25.90
2014,08,24,16,55,25.90
2014,08,24,16,56,25.90
2014,08,24,16,57,25.90
2014,08,24,16,58,26.00
2014,08,24,16,59,26.10
2014,08,24,17,00,26.20
2014,08,24,17,01,26.20
2014,08,24,17,02,26.20
2014,08,24,17,03,26.20
2014,08,24,17,04,26.30
2014,08,24,17,05,26.30
2014,08,24,17,06,26.20
2014,08,24,17,07,26.20
2014,08,24,17,08,26.20
2014,08,24,17,09,26.30
2014,08,24,17,10,26.30
2014,08,24,17,11,26.30
2014,08,24,17,12,26.30
2014,08,24,17,13,26.30
2014,08,24,17,14,26.30
2014,08,24,17,15,26.20
2014,08,24,17,16,26.10
2014,08,24,17,17,26.10
2014,08,24,17,18,26.00
2014,08,24,17,19,26.00